Vertical_Velocity
1 -1 -1 -1 -0 1 -0 -1 -1 1 2 1 -1 -1 -4 1 -3 -1 1 -1 -0 -0 -2 -1 1 3 1 3 2 2 2 -2 1 2 -1 -3 1 -2 -5 -4 -5 -4 3
0 1 1 0 1 3 2 1 1 1 2 2 2 2 3 -0 -0 2 1 3 1 3 3 3 1 2 -0 -1 1 3 2 2 3 4 5 -4 -11 -4 -2 1 -0 -3 -1
-1 -2 -1 2 1 1 2 1 1 0 -1 -1 -1 -0 -1 -0 -1 0 0 3 2 3 1 2 3 3 2 -0 4 3 4 1 2 5 15 2 -6 1 -5 -0 2 2 1
3 5 2 0 0 1 2 1 -0 -0 1 2 1 1 2 1 1 -0 -1 1 2 2 -0 -1 1 -0 2 -1 1 4 1 4 0 5 3 4 6 0 -4 -3 3 -2 0
1 -3 -1 2 -0 0 0 1 0 -0 -1 -2 -0 0 1 1 1 1 1 1 -2 -1 0 2 4 1 2 1 -2 -2 -0 -0 0 -1 -2 -1 2 4 10 -1 -6 -4 -9
-2 3 2 1 -0 -1 -1 0 0 0 -1 -1 -0 0 1 2 3 2 2 2 1 -0 0 2 1 3 2 3 2 2 1 -0 2 1 -0 -0 5 -2 4 3 -1 -1 -10
1 -1 -1 -2 0 0 -1 -1 -0 1 1 -0 0 1 0 -0 -1 -0 -0 1 1 1 0 -1 -1 -1 -1 -0 -1 -1 1 2 2 -3 0 1 2 7 3 7 1 -1 -2
4 -0 0 0 -1 -0 0 0 -0 -0 0 1 1 -1 0 1 0 -1 -1 -1 -1 -0 0 0 1 1 1 1 2 1 2 1 -1 -0 -2 0 -1 2 -1 2 3 -6 -1
1 -1 -1 0 0 -1 -1 -0 0 0 -1 -1 -1 -1 -1 -1 -1 0 -0 1 0 -0 0 1 -0 -0 1 2 1 1 1 -0 1 0 1 1 -0 0 -1 0 3 2 4
3 0 -0 1 -0 -1 -1 -1 -1 -0 -0 -2 -2 -2 -1 -1 -1 -2 -2 -2 -1 -1 -0 -0 0 1 1 1 1 1 2 1 1 0 -0 0 2 2 -1 -2 -1 -0 2
-2 -0 1 -0 -1 -1 -1 -1 -1 -1 -1 -1 -1 -1 -0 -1 0 -0 -0 -1 -1 -1 -1 -0 -0 1 0 1 0 1 1 -1 0 1 1 1 0 -0 -0 -0 -0 1 0
1 1 0 1 0 -1 -1 -2 -2 -1 -0 -1 -1 0 0 0 0 0 -1 -1 -0 0 -0 -0 0 0 -1 -1 0 -0 -1 1 -1 -3 -4 -1 -1 1 -2 0 1 -1 -4
0 -0 -0 -0 -0 -2 -2 -2 -1 -1 -1 -1 -0 -0 -0 -0 -0 0 -0 0 -1 -0 -0 -0 -1 -1 1 -1 -0 2 1 -0 -1 -2 1 1 1 -1 -1 2 -1 -3 -2
-1 2 1 1 1 0 0 0 -0 -0 -1 -1 -1 -1 -1 -0 0 -0 0 -0 -0 -0 -1 -2 0 1 0 -0 2 -3 1 1 -0 1 -2 -3 -2 -2 1 1 0 -1 -0
-1 -1 -0 0 -0 -0 1 -1 -0 0 -0 -1 -1 -0 0 -1 -1 -0 1 0 -1 0 1 2 1 1 -1 1 -1 0 -1 1 0 0 -1 -2 -0 0 1 1 1 -1 -1
-2 0 1 1 -0 -0 0 0 -0 1 -1 -1 1 1 -0 0 -1 -1 0 1 1 1 1 1 -2 2 1 0 -3 0 -0 0 0 -1 -1 -0 1 -1 1 0 -1 -2 -2
-1 -2 -2 -0 0 -1 1 -1 0 0 1 1 0 0 -1 1 -1 -1 0 1 1 0 1 0 2 1 -3 -1 -0 -1 -1 -0 0 -1 1 -0 -0 -1 -1 -2 -0 1 -2
-1 -2 -0 -0 1 -0 -0 0 -1 -0 0 0 0 -0 1 -1 -2 1 1 -2 2 -0 -0 2 -0 -1 -0 -0 0 -2 -2 -1 0 -0 0 -1 -3 -3 -1 1 2 -0 -0
3 2 2 2 0 -0 0 0 1 -2 -1 -1 0 -2 0 0 -1 -1 2 -2 1 0 -1 -0 1 -1 1 -2 -2 -2 -0 -1 1 -1 -1 -1 -3 -3 -3 -0 -1 -1 -0
-2 -2 -1 -0 0 -1 0 0 1 1 0 -0 1 3 -1 -0 2 0 -0 -2 2 -3 -2 0 -3 1 -2 -1 -3 -1 1 -1 0 -3 -2 -2 -2 -1 -1 0 -0 0 0
0 -1 -1 -1 -0 -0 -1 -1 -1 0 2 -2 2 2 1 2 1 -2 -1 -1 -0 -0 -1 -1 -1 -2 -1 -1 -2 1 2 -1 -1 -4 -2 -0 -0 -1 -1 -2 -1 -2 -1
-0 -0 -1 -1 -1 -0 0 1 -1 1 -1 -3 1 0 -1 -0 -1 -1 1 0 -1 0 -0 -0 -1 -2 -0 -1 -0 1 0 -2 -1 -3 -2 -1 -1 -1 -2 -2 -2 -2 -2
2 -1 -0 0 0 -0 1 -1 0 -2 -3 -1 0 0 -1 -0 2 2 1 -0 -1 -1 0 -0 -0 1 -1 -1 -0 -1 -1 -2 -0 -2 -1 -1 -1 -1 0 -0 -1 -0 -1
2 -2 -0 -1 -2 -1 -1 -1 -0 2 -1 -0 -1 -0 0 1 0 -1 -2 -2 -1 1 -2 -0 1 0 -0 -1 -1 -0 -2 -0 -0 -1 -2 -1 -1 -0 -1 -1 -1 -1 -2
-1 -1 -0 -2 -1 -1 -0 -0 -1 -1 -2 1 1 0 1 -1 -2 -1 0 -0 -1 -0 -0 0 -0 -1 -0 -1 -0 -2 -0 1 -1 -1 -1 -1 -1 -0 -0 -1 0 0 0
-0 -2 -1 -1 -0 -0 -1 -1 0 2 1 -3 -2 -1 -1 0 -1 -1 -2 -1 -1 -0 0 -2 -2 -1 -1 -1 -2 -1 -0 -0 -0 -1 -1 -1 -1 -0 -0 -0 -0 -0 -0
Height
1518 1520 1522 1524 1526 1528 1529 1532 1534 1536 1537 1538 1539 1539 1540 1543 1544 1545 1546 1547 1548 1549 1549 1549 1549 1550 1549 1550 1550 1550 1550 1549 1549 1548 1547 1546 1546 1547 1547 1547 1546 1546 1546
1513 1515 1518 1521 1523 1526 1527 1529 1531 1532 1534 1535 1536 1537 1538 1538 1539 1540 1541 1542 1543 1544 1544 1545 1545 1545 1545 1545 1545 1545 1544 1544 1545 1544 1543 1540 1540 1539 1540 1541 1541 1540 1540
1509 1512 1515 1518 1520 1522 1524 1526 1527 1528 1529 1530 1531 1532 1533 1533 1534 1535 1536 1537 1538 1539 1539 1540 1540 1540 1539 1539 1539 1539 1539 1538 1538 1539 1540 1537 1533 1533 1534 1534 1535 1535 1535
1506 1509 1511 1514 1517 1519 1521 1522 1523 1523 1525 1526 1526 1527 1528 1528 1529 1530 1531 1532 1533 1533 1533 1534 1534 1534 1533 1533 1533 1533 1532 1532 1531 1532 1533 1532 1531 1529 1527 1528 1529 1529 1530
1503 1506 1509 1511 1514 1516 1518 1519 1519 1519 1519 1519 1520 1521 1522 1523 1524 1524 1525 1526 1527 1528 1528 1528 1528 1528 1528 1528 1528 1528 1527 1527 1526 1526 1527 1527 1525 1525 1524 1519 1520 1522 1523
1499 1503 1506 1508 1511 1513 1514 1515 1515 1515 1515 1516 1516 1517 1517 1518 1518 1518 1519 1520 1520 1521 1521 1522 1522 1522 1523 1523 1523 1523 1522 1522 1521 1522 1521 1521 1521 1519 1519 1517 1515 1514 1515
1493 1498 1502 1505 1507 1509 1511 1512 1513 1513 1513 1514 1514 1514 1515 1515 1515 1515 1515 1515 1515 1515 1515 1516 1516 1517 1517 1518 1518 1519 1518 1517 1518 1517 1517 1516 1515 1514 1513 1511 1510 1509 1508
1490 1495 1499 1502 1505 1507 1509 1510 1510 1511 1511 1511 1511 1511 1512 1512 1512 1512 1512 1512 1512 1512 1512 1512 1512 1512 1512 1512 1512 1513 1513 1512 1512 1512 1511 1510 1510 1509 1509 1508 1507 1505 1503
1487 1492 1496 1499 1502 1505 1507 1508 1508 1507 1507 1508 1508 1508 1508 1508 1508 1508 1507 1507 1507 1507 1507 1507 1506 1506 1507 1507 1507 1507 1507 1507 1506 1506 1504 1504 1503 1502 1503 1503 1502 1502 1499
1486 1490 1494 1497 1500 1502 1504 1504 1505 1505 1504 1504 1505 1505 1505 1505 1505 1504 1503 1503 1503 1503 1502 1502 1502 1502 1502 1501 1501 1501 1501 1500 1500 1499 1498 1497 1498 1496 1496 1497 1496 1497 1496
1485 1489 1492 1495 1497 1499 1500 1501 1502 1503 1502 1502 1502 1503 1502 1502 1502 1501 1500 1500 1499 1499 1498 1498 1498 1498 1497 1497 1497 1496 1495 1495 1495 1494 1493 1493 1493 1492 1493 1492 1492 1492 1492
1484 1488 1491 1493 1494 1496 1497 1499 1499 1500 1500 1500 1500 1500 1499 1499 1499 1497 1497 1496 1496 1495 1494 1494 1494 1493 1493 1492 1492 1491 1490 1491 1490 1490 1491 1489 1489 1489 1489 1489 1489 1488 1488
1485 1486 1488 1490 1492 1493 1495 1496 1497 1497 1497 1498 1498 1498 1497 1497 1496 1495 1494 1493 1492 1491 1490 1490 1490 1489 1489 1488 1489 1488 1487 1487 1487 1488 1488 1487 1486 1486 1487 1486 1485 1484 1484
1481 1484 1484 1486 1489 1491 1492 1493 1493 1494 1495 1495 1495 1495 1495 1494 1493 1492 1491 1491 1490 1489 1488 1488 1487 1487 1487 1487 1486 1485 1485 1485 1485 1486 1485 1485 1485 1484 1484 1483 1482 1482 1482
1479 1480 1482 1483 1486 1488 1489 1490 1490 1491 1492 1492 1493 1493 1491 1491 1490 1489 1488 1488 1488 1488 1488 1487 1487 1486 1486 1485 1486 1486 1485 1485 1485 1485 1484 1484 1484 1483 1482 1482 1481 1481 1480
1474 1476 1479 1481 1482 1484 1486 1487 1488 1488 1489 1490 1490 1489 1488 1488 1487 1487 1487 1486 1487 1487 1487 1487 1486 1487 1486 1486 1486 1486 1486 1486 1485 1484 1484 1483 1483 1483 1482 1482 1481 1480 1479
1470 1472 1474 1476 1479 1481 1483 1484 1485 1486 1486 1486 1486 1486 1486 1485 1484 1485 1485 1486 1486 1487 1487 1487 1487 1487 1487 1486 1488 1487 1487 1487 1486 1485 1484 1483 1483 1482 1482 1481 1480 1478 1477
1467 1469 1472 1474 1476 1477 1479 1480 1481 1482 1483 1483 1483 1483 1482 1482 1483 1484 1484 1486 1487 1487 1488 1489 1488 1489 1488 1487 1488 1487 1488 1487 1486 1485 1484 1483 1482 1482 1481 1480 1478 1476 1476
1464 1467 1469 1471 1472 1474 1476 1477 1478 1479 1480 1480 1480 1480 1479 1479 1482 1483 1484 1485 1487 1487 1489 1490 1489 1489 1488 1488 1488 1488 1488 1487 1485 1484 1483 1482 1481 1480 1479 1478 1476 1475 1474
1462 1464 1465 1467 1468 1470 1472 1474 1475 1476 1476 1477 1477 1477 1477 1479 1480 1482 1484 1487 1487 1488 1490 1489 1489 1489 1489 1488 1488 1487 1486 1485 1484 1483 1483 1482 1480 1479 1477 1476 1474 1473 1473
1458 1460 1462 1463 1465 1467 1469 1471 1472 1473 1472 1473 1474 1474 1476 1478 1479 1482 1485 1487 1487 1488 1489 1489 1489 1489 1489 1488 1487 1486 1485 1484 1483 1482 1482 1481 1479 1477 1476 1475 1473 1473 1472
1455 1458 1459 1461 1462 1464 1466 1468 1469 1470 1470 1471 1472 1473 1475 1477 1480 1483 1485 1486 1486 1487 1488 1488 1488 1488 1488 1488 1487 1485 1484 1483 1482 1481 1480 1479 1477 1475 1474 1473 1472 1472 1471
1454 1456 1457 1458 1459 1461 1463 1464 1466 1467 1468 1469 1470 1472 1474 1477 1480 1482 1483 1484 1485 1487 1487 1487 1488 1487 1487 1486 1485 1484 1483 1482 1480 1479 1478 1477 1475 1474 1473 1472 1472 1471 1470
1452 1454 1455 1456 1457 1458 1460 1462 1463 1464 1465 1466 1469 1471 1473 1476 1478 1480 1482 1483 1484 1485 1485 1486 1486 1485 1485 1484 1484 1482 1481 1480 1479 1478 1476 1475 1474 1473 1472 1471 1470 1470 1469
1450 1452 1453 1454 1456 1456 1458 1459 1459 1460 1462 1464 1467 1469 1472 1474 1476 1479 1480 1481 1482 1483 1484 1484 1484 1483 1483 1482 1481 1481 1480 1479 1477 1476 1475 1473 1472 1471 1469 1469 1468 1467 1466
1448 1449 1451 1452 1453 1454 1455 1456 1457 1458 1460 1462 1464 1467 1470 1472 1474 1476 1477 1478 1479 1480 1481 1481 1481 1481 1480 1480 1479 1478 1477 1476 1475 1474 1472 1471 1469 1468 1467 1466 1465 1464 1463